Location: Middlebury
(44.0153°N, 73.1678°W)
Time: 19:40:34
(UTC-04:00)

DIWATA 2B (PO-101) - Pass Details

Date: 24 June 2024
Orbit: 575 x 586 km, 98.1° (Epoch: 23 July)

Event Time Altitude Azimuth Distance (km) Brightness Sun altitude
Rises 03:19:51 0° 128° (SE) 2,779 ? -14.9°
Reaches altitude 10° 03:22:26 10° 111° (ESE) 1,886 ? -14.6°
Maximum altitude 03:25:24 20° 65° (ENE) 1,374 ? -14.3°
Drops below altitude 10° 03:28:22 10° 18° (NNE) 1,900 ? -14.0°
Sets 03:30:58 0° 2° (N) 2,806 ? -13.7°
